Tracking 29892 objects as of 21-Nov-2024
HD Live streaming from Space Station
objects crossing your sky now

GALAXY 1

Track GALAXY 1 now!
GALAXY 1 is classified as:


NORAD ID: 14158
Int'l Code: 1983-065A
Perigee: 35,815.3 km
Apogee: 35,850.5 km
Inclination: 14.0 °
Period: 1,438.1 minutes
Semi major axis: 42203 km
RCS: 4.5709 m2 (large)
Launch date: June 28, 1983
Source: United States (US)
Launch site: AIR FORCE EASTERN TEST RANGE (AFETR)
Your satellite tracking list
Your tracking list is empty




NASA's NSSDC Master Catalog

Two Line Element Set (TLE):
1 14158U 83065A   24325.26387119  .00000096  00000-0  00000-0 0  9999
2 14158  14.0136 345.9263 0004161 239.3787 131.7264  1.00132288 40888
Source of the keplerian elements: AFSPC